Weather History for KSLK - May, 2012

Change the Weather History Date:

Monday, May 7, 2012

  Actual Average Record
Temperature  
Mean Temperature 48 °F 47 °F  
Max Temperature 71 °F 61 °F - ()
Min Temperature 24 °F 33 °F - ()
Degree Days  
Heating Degree Days 18 18  
Month to date heating degree days 134  
Since 1 July heating degree days 8905  
Cooling Degree Days 0 0  
Month to date cooling degree days 0 0  
Year to date cooling degree days 4 0  
Moisture  
Dew Point 25 °F    
Average Humidity 53    
Maximum Humidity 92    
Minimum Humidity 13    
Precipitation  
Precipitation 0.05 in 0.09 in - ()
Month to date precipitation 1.63 0.66  
Year to date precipitation 9.55 9.57  
Sea Level Pressure  
Sea Level Pressure 30.05 in    
Wind  
Wind Speed 4 mph (South)    
Max Wind Speed 14 mph    
Max Gust Speed 18 mph    
Visibility 10 miles    
Events Rain    
T = Trace of Precipitation, MM = Missing Value Source: NWS Daily Summary

Daily Weather History Graph

Daily Weather History Graph

Search for Another Location

Airport or City:

Trip Planner

Search our weather history database for the weather conditions in past years. The results will help you decide how hot, cold, wet, or windy it might be!

Date:

Astronomy

May. 07, 2012 Rise Set
Actual Time 5:38 AM EDT 8:08 PM EDT
Civil Twilight 5:05 AM EDT 8:41 PM EDT
Nautical Twilight 4:25 AM EDT 9:22 PM EDT
Astronomical Twilight 3:38 AM EDT 10:09 PM EDT
Moon 10:21 PM EDT (5/7) 6:38 AM EDT (5/7)
Length of Visible Light 15h 35m
Length of Day
14h 30m
Waning Gibbous, 97% of the Moon is Illuminated
May 7
Waning Gibbous
May 12
Last Quarter
May 20
New
May 28
First Quarter
Jun 4
Full

Hourly Weather History & Observations

Time (EDT) Temp. Windchill Dew Point Humidity Pressure Visibility Wind Dir Wind Speed Gust Speed Precip Events Conditions
12:51 AM 30.0 °F - 27.0 °F 88% 30.13 in 10.0 mi Calm Calm - N/A   Clear
1:51 AM 28.9 °F - 26.1 °F 89% 30.12 in 10.0 mi Calm Calm - N/A   Clear
2:51 AM 27.0 °F - 25.0 °F 92% 30.12 in 10.0 mi Calm Calm - N/A   Clear
3:51 AM 27.0 °F - 25.0 °F 92% 30.13 in 10.0 mi Calm Calm - N/A   Clear
4:51 AM 26.1 °F - 24.1 °F 92% 30.14 in 10.0 mi Calm Calm - N/A   Clear
5:51 AM 24.1 °F - 21.9 °F 91% 30.14 in 10.0 mi Calm Calm - N/A   Clear
6:51 AM 30.9 °F - 28.0 °F 89% 30.13 in 10.0 mi Calm Calm - N/A   Clear
7:51 AM 41.0 °F 38.0 °F 30.9 °F 67% 30.12 in 10.0 mi SSW 4.6 mph - N/A   Clear
8:51 AM 55.0 °F - 24.1 °F 30% 30.12 in 10.0 mi NE 4.6 mph - N/A   Clear
9:51 AM 57.9 °F - 19.0 °F 22% 30.12 in 10.0 mi South 4.6 mph - N/A   Clear
10:51 AM 62.6 °F - 19.4 °F 19% 30.09 in 10.0 mi East 8.1 mph - N/A   Clear
11:51 AM 64.0 °F - 17.1 °F 16% 30.09 in 10.0 mi Variable 4.6 mph - N/A   Clear
12:51 PM 66.0 °F - 14.0 °F 13% 30.07 in 10.0 mi Variable 3.5 mph - N/A   Clear
1:51 PM 66.9 °F - 17.1 °F 15% 30.05 in 10.0 mi Variable 3.5 mph - N/A   Clear
2:51 PM 70.0 °F - 19.0 °F 14% 30.03 in 10.0 mi SSW 5.8 mph - N/A   Clear
3:51 PM 70.0 °F - 21.0 °F 16% 30.00 in 10.0 mi South 10.4 mph - N/A   Clear
4:51 PM 69.1 °F - 19.9 °F 15% 29.98 in 10.0 mi Variable 5.8 mph - N/A   Clear
5:51 PM 69.1 °F - 18.0 °F 14% 29.97 in 10.0 mi South 6.9 mph - N/A   Clear
6:51 PM 66.0 °F - 24.1 °F 20% 29.95 in 10.0 mi SSE 10.4 mph - N/A   Clear
7:51 PM 63.0 °F - 26.1 °F 25% 29.94 in 10.0 mi South 8.1 mph - N/A   Clear
8:51 PM 62.1 °F - 30.9 °F 31% 29.92 in 10.0 mi South 10.4 mph - N/A   Clear
9:51 PM 61.0 °F - 36.0 °F 39% 29.92 in 10.0 mi South 6.9 mph - N/A   Overcast
10:51 PM 59.0 °F - 42.1 °F 53% 29.92 in 10.0 mi Calm Calm - N/A   Overcast
11:51 PM 54.0 °F - 48.9 °F 83% 29.93 in 5.0 mi South 4.6 mph - 0.04 in Rain Light Rain